H1 CPF 2 NER 2022 2 23 9 054 01 glonass139 H2 1808601 9139 43687 2022 2 23 0 0 0 2022 2 26 23 45 0 900 1 1 0 0 0 1 H9 10 0 59633 0.00000 0 -10934765.812 -1927644.036 22977461.167 10 0 59633 900.00000 0 -10885938.814 -4735033.707 22590490.766 10 0 59633 1800.00000 0 -11036435.166 -7464166.436 21765412.052 10 0 59633 2700.00000 0 -11369324.766 -10048693.846 20518210.225 10 0 59633 3600.00000 0 -11856527.891 -12427400.675 18873044.346 10 0 59633 4500.00000 0 -12460065.296 -14546509.815 16861784.433 10 0 59633 5400.00000 0 -13133741.072 -16361684.275 14523400.292 10 0 59633 6300.00000 0 -13825187.971 -17839643.756 11903213.049 10 0 59633 7200.00000 0 -14478189.618 -18959329.130 9052023.101 10 0 59633 8100.00000 0 -15035182.154 -19712566.854 6025130.635 10 0 59633 9000.00000 0 -15439830.068 -20104205.950 2881267.065 10 0 59633 9900.00000 0 -15639567.437 -20151722.078 -318542.153 10 0 59633 10800.00000 0 -15587996.992 -19884305.633 -3512161.404 10 0 59633 11700.00000 0 -15247045.000 -19341472.400 -6637552.441 10 0 59633 12600.00000 0 -14588780.057 -18571255.486 -9633981.686 10 0 59633 13500.00000 0 -13596817.851 -17628054.998 -12443203.498 10 0 59633 14400.00000 0 -12267251.255 -16570236.379 -15010595.938 10 0 59633 15300.00000 0 -10609065.115 -15457579.001 -17286226.464 10 0 59633 16200.00000 0 -8644016.763 -14348682.907 -19225826.490 10 0 59633 17100.00000 0 -6405985.698 -13298443.278 -20791655.661 10 0 59633 18000.00000 0 -3939818.346 -12355699.304 -21953238.815 10 0 59633 18900.00000 0 -1299714.866 -11561156.638 -22687961.311 10 0 59633 19800.00000 0 1452775.783 -10945670.975 -22981511.167 10 0 59633 20700.00000 0 4251069.811 -10528965.025 -22828159.383 10 0 59633 21600.00000 0 7026076.035 -10318832.808 -22230873.022 10 0 59633 22500.00000 0 9708832.242 -10310864.574 -21201258.753 10 0 59633 23400.00000 0 12233141.168 -10488703.797 -19759337.811 10 0 59633 24300.00000 0 14538096.842 -10824825.093 -17933156.565 10 0 59633 25200.00000 0 16570396.475 -11281799.964 -15758240.074 10 0 59633 26100.00000 0 18286341.835 -11813996.594 -13276899.111 10 0 59633 27000.00000 0 19653447.146 -12369641.426 -10537404.116 10 0 59633 27900.00000 0 20651586.910 -12893154.922 -7593042.220 10 0 59633 28800.00000 0 21273636.409 -13327662.115 -4501076.001 10 0 59633 29700.00000 0 21525579.030 -13617571.131 -1321624.708 10 0 59633 30600.00000 0 21426077.111 -13711109.959 1883509.795 10 0 59633 31500.00000 0 21005525.603 -13562713.488 5052048.737 10 0 59633 32400.00000 0 20304629.705 -13135159.337 8122449.805 10 0 59633 33300.00000 0 19372567.651 -12401361.688 11035104.051 10 0 59633 34200.00000 0 18264817.084 -11345747.011 13733492.677 10 0 59633 35100.00000 0 17040737.456 -9965153.290 16165281.199 10 0 59633 36000.00000 0 15761010.677 -8269214.524 18283329.982 10 0 59633 36900.00000 0 14485047.882 -6280213.941 20046601.965 10 0 59633 37800.00000 0 13268471.083 -4032411.560 21420950.740 10 0 59633 38700.00000 0 12160774.892 -1570873.452 22379774.620 10 0 59633 39600.00000 0 11203265.669 1050149.195 22904524.870 10 0 59633 40500.00000 0 10427363.532 3769224.788 22985059.191 10 0 59633 41400.00000 0 9853337.387 6520047.660 22619834.277 10 0 59633 42300.00000 0 9489525.056 9233951.412 21815934.146 10 0 59633 43200.00000 0 9332070.417 11842526.355 20588933.846 10 0 59633 44100.00000 0 9365188.004 14280233.704 18962600.956 10 0 59633 45000.00000 0 9561943.674 16486909.178 16968440.230 10 0 59633 45900.00000 0 9885518.501 18410053.065 14645089.473 10 0 59633 46800.00000 0 10290902.849 20006812.384 12037577.537 10 0 59633 47700.00000 0 10726949.593 21245573.181 9196457.996 10 0 59633 48600.00000 0 11138700.155 22107097.005 6176834.529 10 0 59633 49500.00000 0 11469885.399 22585154.344 3037296.280 10 0 59633 50400.00000 0 11665495.759 22686628.635 -161216.461 10 0 59633 51300.00000 0 11674311.739 22431086.557 -3356594.369 10 0 59633 52200.00000 0 11451287.271 21849832.718 -6486766.000 10 0 59633 53100.00000 0 10959684.420 20984488.521 -9490905.657 10 0 59633 54000.00000 0 10172868.102 19885155.096 -12310618.404 10 0 59633 54900.00000 0 9075683.777 18608237.772 -14891078.723 10 0 59633 55800.00000 0 7665358.531 17214023.866 -17182100.177 10 0 59633 56700.00000 0 5951886.042 15764115.949 -19139114.963 10 0 59633 57600.00000 0 3957877.615 14318828.763 -20724044.041 10 0 59633 58500.00000 0 1717883.992 12934659.463 -21906040.737 10 0 59633 59400.00000 0 -722785.119 11661937.587 -22662093.329 10 0 59633 60300.00000 0 -3309695.821 10542753.460 -22977474.925 10 0 59633 61200.00000 0 -5981311.953 9609251.955 -22846031.858 10 0 59633 62100.00000 0 -8671320.796 8882363.004 -22270305.010 10 0 59633 63000.00000 0 -11311166.488 8371021.812 -21261481.637 10 0 59633 63900.00000 0 -13832686.094 8071911.110 -19839178.494 10 0 59633 64800.00000 0 -16170739.003 7969735.704 -18031060.301 10 0 59633 65700.00000 0 -18265720.425 8038017.110 -15872300.762 10 0 59633 66600.00000 0 -20065854.359 8240374.109 -13404896.501 10 0 59633 67500.00000 0 -21529170.613 8532234.429 -10676847.187 10 0 59633 68400.00000 0 -22625083.621 8862904.438 -7741217.879 10 0 59633 69300.00000 0 -23335507.410 9177908.549 -4655102.137 10 0 59633 70200.00000 0 -23655460.701 9421498.527 -1478506.517 10 0 59633 71100.00000 0 -23593137.590 9539225.633 1726821.339 10 0 59633 72000.00000 0 -23169441.845 9480466.017 4898597.456 10 0 59633 72900.00000 0 -22417005.540 9200791.740 7975215.109 10 0 59633 73800.00000 0 -21378734.428 8664086.543 10896943.123 10 0 59633 74700.00000 0 -20105942.314 7844316.489 13607085.162 10 0 59633 75600.00000 0 -18656153.760 6726880.286 16053077.477 10 0 59633 76500.00000 0 -17090668.084 5309481.988 18187503.980 10 0 59633 77400.00000 0 -15471987.226 3602488.990 19969009.386 10 0 59633 78300.00000 0 -13861215.310 1628759.709 21363093.495 10 0 59633 79200.00000 0 -12315538.430 -577052.443 22342772.075 10 0 59633 80100.00000 0 -10885889.436 -2969690.571 22889092.459 10 0 59633 81000.00000 0 -9614894.453 -5494932.534 22991494.754 10 0 59633 81900.00000 0 -8535185.809 -8091608.978 22648012.383 10 0 59633 82800.00000 0 -7668150.839 -10693918.361 21865308.499 10 0 59633 83700.00000 0 -7023167.731 -13233944.194 20658547.735 10 0 59633 84600.00000 0 -6597359.465 -15644271.232 19051105.557 10 0 59633 85500.00000 0 -6375875.461 -17860593.064 17074120.448 10 0 59634 0.00000 0 -6332688.591 -19824203.610 14765897.088 10 0 59634 900.00000 0 -6431873.819 -21484270.738 12171169.954 10 0 59634 1800.00000 0 -6629314.657 -22799795.173 9340244.025 10 0 59634 2700.00000 0 -6874765.422 -23741176.929 6328024.253 10 0 59634 3600.00000 0 -7114182.458 -24291321.184 3192955.084 10 0 59634 4500.00000 0 -7292225.738 -24446238.404 -4110.949 10 0 59634 5400.00000 0 -7354824.880 -24215113.234 -3201093.549 10 0 59634 6300.00000 0 -7251700.623 -23619839.072 -6335890.940 10 0 59634 7200.00000 0 -6938734.420 -22694037.704 -9347588.282 10 0 59634 8100.00000 0 -6380084.995 -21481605.059 -12177644.387 10 0 59634 9000.00000 0 -5549961.226 -20034844.172 -14771033.218 10 0 59634 9900.00000 0 -4433975.182 -18412263.829 -17077317.446 10 0 59634 10800.00000 0 -3030016.729 -16676135.510 -19051632.879 10 0 59634 11700.00000 0 -1348611.294 -14889911.285 -20655564.374 10 0 59634 12600.00000 0 587255.799 -13115611.167 -21857895.965 10 0 59634 13500.00000 0 2742842.620 -11411289.541 -22635220.648 10 0 59634 14400.00000 0 5072853.583 -9828686.787 -22972397.948 10 0 59634 15300.00000 0 7523092.974 -8411164.384 -22862850.359 10 0 59634 16200.00000 0 10032501.124 -7192009.658 -22308692.941 10 0 59634 17100.00000 0 12535489.200 -6193180.739 -21320693.430 10 0 59634 18000.00000 0 14964475.816 -5424543.783 -19918063.540 10 0 59634 18900.00000 0 17252520.187 -4883633.670 -18128085.335 10 0 59634 19800.00000 0 19335942.302 -4555947.377 -15985579.694 10 0 59634 20700.00000 0 21156820.823 -4415756.737 -13532227.143 10 0 59634 21600.00000 0 22665264.540 -4427405.281 -10815754.150 10 0 59634 22500.00000 0 23821362.497 -4547033.404 -7889000.812 10 0 59634 23400.00000 0 24596731.281 -4724657.882 -4808888.372 10 0 59634 24300.00000 0 24975595.043 -4906516.750 -1635307.080 10 0 59634 25200.00000 0 24955353.394 -5037579.274 1570053.444 10 0 59634 26100.00000 0 24546614.059 -5064113.847 4744907.856 10 0 59634 27000.00000 0 23772689.734 -4936204.245 7827588.750 10 0 59634 27900.00000 0 22668581.224 -4610107.053 10758246.218 10 0 59634 28800.00000 0 21279490.509 -4050350.005 13480009.557 10 0 59634 29700.00000 0 19658927.018 -3231482.140 15940088.514 10 0 59634 30600.00000 0 17866487.192 -2139401.523 18090792.880 10 0 59634 31500.00000 0 15965400.811 -772204.297 19890451.048 10 0 59634 32400.00000 0 14019946.847 859481.112 21304210.480 10 0 59634 33300.00000 0 12092846.605 2732689.189 22304705.439 10 0 59634 34200.00000 0 10242742.448 4812834.460 22872579.938 10 0 59634 35100.00000 0 8521866.410 7054921.495 22996856.692 10 0 59634 36000.00000 0 6973994.811 9405198.423 22675145.630 10 0 59634 36900.00000 0 5632772.957 11803186.241 21913688.387 10 0 59634 37800.00000 0 4520478.561 14184000.773 20727238.107 10 0 59634 38700.00000 0 3647274.258 16480872.011 19138776.682 10 0 59634 39600.00000 0 3010979.492 18627757.184 17179074.495 10 0 59634 40500.00000 0 2597370.420 20561939.889 14886100.494 10 0 59634 41400.00000 0 2380994.646 22226507.883 12304293.187 10 0 59634 42300.00000 0 2326466.158 23572606.713 9483705.879 10 0 59634 43200.00000 0 2390185.715 24561375.454 6479041.922 10 0 59634 44100.00000 0 2522413.959 25165483.639 3348598.043 10 0 59634 45000.00000 0 2669609.622 25370204.843 153135.910 10 0 59634 45900.00000 0 2776933.738 25173981.612 -3045296.326 10 0 59634 46800.00000 0 2790813.552 24588457.620 -6184569.594 10 0 59634 47700.00000 0 2661457.102 23637975.234 -9203682.787 10 0 59634 48600.00000 0 2345211.248 22358559.226 -12043951.108 10 0 59634 49500.00000 0 1806662.449 20796428.943 -14650150.354 10 0 59634 50400.00000 0 1020390.300 19006101.208 -16971594.349 10 0 59634 51300.00000 0 -27701.531 17048163.424 -18963124.254 10 0 59634 52200.00000 0 -1339534.545 14986810.162 -20585990.251 10 0 59634 53100.00000 0 -2904522.139 12887246.483 -21808608.237 10 0 59634 54000.00000 0 -4699769.307 10813066.646 -22607176.788 10 0 59634 54900.00000 0 -6690798.455 8823717.742 -22966142.408 10 0 59634 55800.00000 0 -8832772.164 6972154.195 -22878503.994 10 0 59634 56700.00000 0 -11072162.952 5302780.812 -22345950.641 10 0 59634 57600.00000 0 -13348801.241 3849769.892 -21378830.012 10 0 59634 58500.00000 0 -15598216.626 2635822.166 -19995947.795 10 0 59634 59400.00000 0 -17754175.242 1671422.611 -18224201.978 10 0 59634 60300.00000 0 -19751307.534 954621.311 -16098058.821 10 0 59634 61200.00000 0 -21527716.675 471347.493 -13658880.633 10 0 59634 62100.00000 0 -23027458.583 196242.297 -10954118.336 10 0 59634 63000.00000 0 -24202789.660 93973.886 -8036384.563 10 0 59634 63900.00000 0 -25016087.999 120978.183 -4962425.660 10 0 59634 64800.00000 0 -25441367.548 227550.347 -1792012.964 10 0 59634 65700.00000 0 -25465321.855 360197.341 1413224.537 10 0 59634 66600.00000 0 -25087853.900 464150.922 4591002.730 10 0 59634 67500.00000 0 -24322070.271 485933.662 7679596.101 10 0 59634 68400.00000 0 -23193740.562 375868.581 10619038.538 10 0 59634 69300.00000 0 -21740245.395 90425.549 13352287.419 10 0 59634 70200.00000 0 -20009057.905 -405695.174 15826328.320 10 0 59634 71100.00000 0 -18055822.850 -1137830.643 17993199.055 10 0 59634 72000.00000 0 -15942114.214 -2120047.438 19810913.605 10 0 59634 72900.00000 0 -13732965.082 -3354313.738 21244268.715 10 0 59634 73800.00000 0 -11494272.722 -4830186.456 22265518.438 10 0 59634 74700.00000 0 -9290186.579 -6525026.983 22854904.422 10 0 59634 75600.00000 0 -7180587.129 -8404737.305 23001032.595 10 0 59634 76500.00000 0 -5218759.436 -10424986.604 22701089.670 10 0 59634 77400.00000 0 -3449357.067 -12532878.201 21960895.740 10 0 59634 78300.00000 0 -1906739.718 -14668988.545 20794792.140 10 0 59634 79200.00000 0 -613752.483 -16769694.549 19225366.584 10 0 59634 80100.00000 0 419003.532 -18769693.414 17283020.469 10 0 59634 81000.00000 0 1193379.886 -20604611.013 15005386.071 10 0 59634 81900.00000 0 1723360.952 -22213590.918 12436604.056 10 0 59634 82800.00000 0 2034229.598 -23541756.497 9626474.532 10 0 59634 83700.00000 0 2161253.988 -24542443.533 6629497.280 10 0 59634 84600.00000 0 2147951.162 -25179109.918 3503819.112 10 0 59634 85500.00000 0 2044000.882 -25426842.141 310108.457 10 0 59635 0.00000 0 1902898.205 -25273394.949 -2889620.929 10 0 59635 900.00000 0 1779444.303 -24719719.784 -6033215.937 10 0 59635 1800.00000 0 1727182.352 -23779959.383 -9059591.683 10 0 59635 2700.00000 0 1795887.419 -22480907.825 -11909922.634 10 0 59635 3600.00000 0 2029217.555 -20860958.150 -14528789.328 10 0 59635 4500.00000 0 2462626.332 -18968581.210 -16865259.617 10 0 59635 5400.00000 0 3121626.179 -16860399.123 -18873882.775 10 0 59635 6300.00000 0 4020477.064 -14598933.686 -20515576.867 10 0 59635 7200.00000 0 5161357.086 -12250123.835 -21758391.914 10 0 59635 8100.00000 0 6534051.256 -9880715.758 -22578133.972 10 0 59635 9000.00000 0 8116172.879 -7555634.426 -22958838.011 10 0 59635 9900.00000 0 9873909.474 -5335446.176 -22893080.384 10 0 59635 10800.00000 0 11763263.122 -3274017.783 -22382124.841 10 0 59635 11700.00000 0 13731734.295 -1416469.290 -21435899.167 10 0 59635 12600.00000 0 15720379.388 202494.552 -20072802.803 10 0 59635 13500.00000 0 17666156.446 1559805.342 -18319349.019 10 0 59635 14400.00000 0 19504461.256 2644754.506 -16209648.384 10 0 59635 15300.00000 0 21171747.683 3459189.987 -13784743.470 10 0 59635 16200.00000 0 22608122.459 4017179.220 -11091807.664 10 0 59635 17100.00000 0 23759805.521 4344153.959 -8183223.705 10 0 59635 18000.00000 0 24581352.379 4475574.396 -5115560.199 10 0 59635 18900.00000 0 25037545.112 4455170.424 -1948466.398 10 0 59635 19800.00000 0 25104872.405 4332835.716 1256492.744 10 0 59635 20700.00000 0 24772536.480 4162264.991 4437037.845 10 0 59635 21600.00000 0 24042944.799 3998435.567 7531388.757 10 0 59635 22500.00000 0 22931666.163 3895040.746 10479466.508 10 0 59635 23400.00000 0 21466853.509 3901984.356 13224059.678 10 0 59635 24300.00000 0 19688158.028 4063042.892 15711932.517 10 0 59635 25200.00000 0 17645180.501 4413794.382 17894853.413 10 0 59635 26100.00000 0 15395524.924 4979901.524 19730524.156 10 0 59635 27000.00000 0 13002535.782 5775821.546 21183392.677 10 0 59635 27900.00000 0 10532813.129 6803997.265 22225334.399 10 0 59635 28800.00000 0 8053608.520 8054563.490 22836189.836 10 0 59635 29700.00000 0 5630209.351 9505581.545 23004148.998 10 0 59635 30600.00000 0 3323419.252 11123792.720 22725975.845 10 0 59635 31500.00000 0 1187238.107 12865859.930 22007068.952 10 0 59635 32400.00000 0 -733163.307 14680046.741 20861357.417 10 0 59635 33300.00000 0 -2403091.225 16508264.752 19311033.881 10 0 59635 34200.00000 0 -3799532.033 18288404.950 17386129.414 10 0 59635 35100.00000 0 -4911861.728 19956856.762 15123937.861 10 0 59635 36000.00000 0 -5742033.163 21451110.415 12568299.930 10 0 59635 36900.00000 0 -6304234.033 22712334.416 9768760.106 10 0 59635 37800.00000 0 -6624030.679 23687820.602 6779611.913 10 0 59635 38700.00000 0 -6737034.234 24333194.360 3658849.365 10 0 59635 39600.00000 0 -6687145.652 24614296.981 467044.602 10 0 59635 40500.00000 0 -6524454.066 24508660.617 -2733826.720 10 0 59635 41400.00000 0 -6302877.622 24006513.122 -5881589.451 10 0 59635 42300.00000 0 -6077646.953 23111269.651 -8915078.617 10 0 59635 43200.00000 0 -5902738.333 21839489.468 -11775330.909 10 0 59635 44100.00000 0 -5828365.752 20220298.779 -14406734.371 10 0 59635 45000.00000 0 -5898638.776 18294303.052 -16758113.391 10 0 59635 45900.00000 0 -6149486.113 16112033.644 -18783727.578 10 0 59635 46800.00000 0 -6606933.574 13731993.171 -20444164.806 10 0 59635 47700.00000 0 -7285810.164 11218380.948 -21707110.827 10 0 59635 48600.00000 0 -8188937.887 8638593.124 -22547980.469 10 0 59635 49500.00000 0 -9306840.545 6060601.475 -22950398.118 10 0 59635 50400.00000 0 -10617984.762 3550319.894 -22906518.164 10 0 59635 51300.00000 0 -12089544.141 1169067.987 -22417179.172 10 0 59635 52200.00000 0 -13678655.372 -1028763.068 -21491888.764 10 0 59635 53100.00000 0 -15334114.267 -2997745.543 -20148639.382 10 0 59635 54000.00000 0 -16998441.165 -4703066.998 -18413558.357 10 0 59635 54900.00000 0 -18610229.414 -6121730.850 -16320398.918 10 0 59635 55800.00000 0 -20106678.503 -7243256.492 -13909881.881 10 0 59635 56700.00000 0 -21426205.482 -8069850.933 -11228900.790 10 0 59635 57600.00000 0 -22511024.777 -8616046.128 -8329605.973 10 0 59635 58500.00000 0 -23309587.674 -8907818.723 -5268385.636 10 0 59635 59400.00000 0 -23778778.564 -8981230.826 -2104764.204 10 0 59635 60300.00000 0 -23885775.255 -8880650.699 1099760.184 10 0 59635 61200.00000 0 -23609494.861 -8656629.913 4282915.680 10 0 59635 62100.00000 0 -22941564.331 -8363528.036 7382870.297 10 0 59635 63000.00000 0 -21886774.840 -8056986.407 10339434.956 10 0 59635 63900.00000 0 -20463001.081 -7791358.658 13095232.107 10 0 59635 64800.00000 0 -18700589.009 -7617207.232 15596807.194 10 0 59635 65700.00000 0 -16641237.880 -7578971.991 17795661.492 10 0 59635 66600.00000 0 -14336423.467 -7712909.408 19649186.637 10 0 59635 67500.00000 0 -11845428.250 -8045389.214 21121483.474 10 0 59635 68400.00000 0 -9233060.411 -8591620.105 22184050.151 10 0 59635 69300.00000 0 -6567156.144 -9354858.029 22816327.052 10 0 59635 70200.00000 0 -3915968.319 -10326130.356 23006088.905 10 0 59635 71100.00000 0 -1345548.907 -11484487.762 22749677.230 10 0 59635 72000.00000 0 1082767.274 -12797773.757 22052069.100 10 0 59635 72900.00000 0 3314674.453 -14223880.308 20926781.113 10 0 59635 73800.00000 0 5304908.805 -15712437.950 19395610.319 10 0 59635 74700.00000 0 7018879.995 -17206870.567 17488216.686 10 0 59635 75600.00000 0 8433854.752 -18646729.879 15241554.576 10 0 59635 76500.00000 0 9539644.270 -19970212.762 12699163.395 10 0 59635 77400.00000 0 10338767.602 -21116756.600 9910330.349 10 0 59635 78300.00000 0 10846085.020 -22029604.261 6929140.739 10 0 59635 79200.00000 0 11087917.365 -22658231.168 3813433.537 10 0 59635 80100.00000 0 11100688.833 -22960532.254 623682.102 10 0 59635 81000.00000 0 10929150.863 -22904676.372 -2578178.401 10 0 59635 81900.00000 0 10624262.401 -22470549.354 -5729954.163 10 0 59635 82800.00000 0 10240816.480 -21650724.021 -8770402.714 10 0 59635 83700.00000 0 9834913.916 -20450915.248 -11640425.888 10 0 59635 84600.00000 0 9461391.489 -18889899.744 -14284222.123 10 0 59635 85500.00000 0 9171313.926 -16998902.841 -16650375.160 10 0 59636 0.00000 0 9009636.475 -14820477.141 -18692857.445 10 0 59636 900.00000 0 9013137.437 -12406917.816 -20371929.479 10 0 59636 1800.00000 0 9208708.943 -9818283.132 -21654914.713 10 0 59636 2700.00000 0 9612078.558 -7120098.274 -22516838.556 10 0 59636 3600.00000 0 10227016.651 -4380840.593 -22940916.231 10 0 59636 4500.00000 0 11045063.550 -1669309.535 -22918881.155 10 0 59636 5400.00000 0 12045788.729 948009.484 -22451147.296 10 0 59636 6300.00000 0 13197571.799 3409478.010 -21546802.292 10 0 59636 7200.00000 0 14458873.004 5660629.243 -20223431.369 10 0 59636 8100.00000 0 15779940.279 7656188.327 -18506775.335 10 0 59636 9000.00000 0 17104881.376 9361704.764 -16430229.096 10 0 59636 9900.00000 0 18374014.023 10754729.631 -14034190.353 10 0 59636 10800.00000 0 19526395.178 11825489.546 -11365271.044 10 0 59636 11700.00000 0 20502422.734 12577030.374 -8475386.937 10 0 59636 12600.00000 0 21246399.726 13024826.038 -5420743.331 10 0 59636 13500.00000 0 21708952.653 13195870.417 -2260737.011 10 0 59636 14400.00000 0 21849201.558 13127292.125 943203.736 10 0 59636 15300.00000 0 21636590.043 12864552.094 4128817.743 10 0 59636 16200.00000 0 21052297.806 12459301.482 7234224.362 10 0 59636 17100.00000 0 20090176.011 11966991.615 10199127.497 10 0 59636 18000.00000 0 18757166.025 11444337.941 12965986.424 10 0 59636 18900.00000 0 17073183.846 10946745.806 15481130.544 10 0 59636 19800.00000 0 15070475.011 10525807.185 17695796.558 10 0 59636 20700.00000 0 12792466.900 10226974.050 19567068.268 10 0 59636 21600.00000 0 10292166.188 10087506.352 21058701.492 10 0 59636 22500.00000 0 7630167.858 10134780.726 22141818.918 10 0 59636 23400.00000 0 4872358.153 10385030.715 22795462.315 10 0 59636 24300.00000 0 2087406.151 10842571.132 23006992.329 10 0 59636 25200.00000 0 -655852.958 11499538.981 22772328.856 10 0 59636 26100.00000 0 -3291035.401 12336161.817 22096027.858 10 0 59636 27000.00000 0 -5756719.925 13321542.594 20991193.370 10 0 59636 27900.00000 0 -7998749.700 14414928.636 19479226.291 10 0 59636 28800.00000 0 -9972230.656 15567412.190 17589414.454 10 0 59636 29700.00000 0 -11643144.512 16723992.091 15358371.259 10 0 59636 30600.00000 0 -12989510.442 17825910.856 12829332.929 10 0 59636 31500.00000 0 -14002047.823 18813169.739 10051327.187 10 0 59636 32400.00000 0 -14684313.156 19627116.614 7078228.655 10 0 59636 33300.00000 0 -15052306.075 20212998.058 3967718.588 10 0 59636 34200.00000 0 -15133561.398 20522368.121 780168.757 10 0 59636 35100.00000 0 -14965765.880 20515251.939 -2422529.105 10 0 59636 36000.00000 0 -14594958.277 20161972.286 -5578165.537 10 0 59636 36900.00000 0 -14073388.981 19444561.134 -8625423.603 10 0 59636 37800.00000 0 -13457130.043 18357695.578 -11505073.259 10 0 59636 38700.00000 0 -12803536.918 16909117.409 -14161126.214 10 0 59636 39600.00000 0 -12168669.705 15119517.385 -16541928.256 10 0 59636 40500.00000 0 -11604783.304 13021887.722 -18601167.465 10 0 59636 41400.00000 0 -11157993.044 10660368.706 -20298778.415 10 0 59636 42300.00000 0 -10866214.823 8088636.658 -21601724.529 10 0 59636 43200.00000 0 -10757467.173 5367899.648 -22484643.336 10 0 59636 44100.00000 0 -10848607.324 2564583.770 -22930342.081 10 0 59636 45000.00000 0 -11144554.943 -252194.182 -22930134.016 10 0 59636 45900.00000 0 -11638036.686 -3013263.005 -22484008.904 10 0 59636 46800.00000 0 -12309862.617 -5652033.142 -21600634.360 10 0 59636 47700.00000 0 -13129723.197 -8107023.247 -20297187.899 10 0 59636 48600.00000 0 -14057473.452 -10324172.616 -18599022.860 10 0 59636 49500.00000 0 -15044850.388 -12258843.812 -16539174.472 10 0 59636 50400.00000 0 -16037551.246 -13877432.587 -14157715.587 10 0 59636 51300.00000 0 -16977584.905 -15158518.801 -11500974.509 10 0 59636 52200.00000 0 -17805796.971 -16093511.241 -8620630.170 10 0 59636 53100.00000 0 -18464461.661 -16686760.481 -5572702.528 10 0 59636 54000.00000 0 -18899830.596 -16955136.435 -2416458.166 10 0 59636 54900.00000 0 -19064530.444 -16927089.841 786747.127 10 0 59636 55800.00000 0 -18919707.668 -16641238.660 3974665.584 10 0 59636 56700.00000 0 -18436829.462 -16144540.423 7085370.657 10 0 59636 57600.00000 0 -17599064.500 -15490128.976 10058462.014 10 0 59636 58500.00000 0 -16402185.063 -14734907.964 12836238.512 10 0 59636 59400.00000 0 -14854952.319 -13937003.458 15364816.173 10 0 59636 60300.00000 0 -12978968.291 -13153183.662 17595169.629 10 0 59636 61200.00000 0 -10808000.504 -12436354.637 19484077.128 10 0 59636 62100.00000 0 -8386807.145 -11833237.386 20994951.456 10 0 59636 63000.00000 0 -5769511.265 -11382323.645 22098541.499 10 0 59636 63900.00000 0 -3017591.138 -11112195.798 22773491.725 10 0 59636 64800.00000 0 -197569.471 -11040280.855 23006749.649 10 0 59636 65700.00000 0 2621503.635 -11172090.253 22793814.163 10 0 59636 66600.00000 0 5370670.643 -11500976.985 22138820.423 10 0 59636 67500.00000 0 7983682.109 -12008420.040 21054459.908 10 0 59636 68400.00000 0 10399500.676 -12664824.279 19561737.101 10 0 59636 69300.00000 0 12564590.819 -13430802.503 17689567.141 10 0 59636 70200.00000 0 14434900.463 -14258886.354 15474221.606 10 0 59636 71100.00000 0 15977453.138 -15095594.768 12958632.340 10 0 59636 72000.00000 0 17171485.121 -15883773.600 10191566.020 10 0 59636 72900.00000 0 18009080.863 -16565108.418 7226684.645 10 0 59636 73800.00000 0 18495280.655 -17082704.960 4121509.442 10 0 59636 74700.00000 0 18647656.433 -17383628.435 936307.954 10 0 59636 75600.00000 0 18495373.851 -17421294.319 -2267074.398 10 0 59636 76500.00000 0 18077780.402 -17157609.130 -5426415.549 10 0 59636 77400.00000 0 17442579.285 -16564769.948 -8480327.204 10 0 59636 78300.00000 0 16643666.327 -15626645.625 -11369450.545 10 0 59636 79200.00000 0 15738721.539 -14339680.104 -14037613.565 10 0 59636 80100.00000 0 14786657.294 -12713278.360 -16432926.976 10 0 59636 81000.00000 0 13845031.214 -10769657.257 -18508797.004 10 0 59636 81900.00000 0 12967533.251 -8543166.089 -20224835.105 10 0 59636 82800.00000 0 12201653.327 -6079103.956 -21547646.622 10 0 59636 83700.00000 0 11586628.111 -3432082.222 -22451483.012 10 0 59636 84600.00000 0 11151753.687 -663999.333 -22918744.971 10 0 59636 85500.00000 0 10915135.332 2158288.351 -22940326.616 99